Wind_Speed
78 81 81 80 79 77 79 77 74 71 68 65 58 51 47 44 39 36 50 54 60 65 68 71 71 73 75
85 88 88 89 87 85 84 84 83 82 78 76 70 63 56 53 47 46 46 56 64 71 75 79 78 76 77
90 93 95 97 95 93 92 91 89 89 87 85 82 79 74 66 61 57 54 53 63 71 80 84 84 85 88
102 102 103 105 105 104 103 101 99 98 96 94 90 85 83 82 78 69 66 62 60 70 79 85 90 92 93
113 113 113 114 114 114 111 111 109 107 103 102 100 96 92 88 86 84 76 74 71 70 76 79 88 95 98
125 125 125 124 124 124 121 118 113 114 112 109 108 102 101 96 95 92 89 84 82 80 79 79 86 89 96
133 133 132 132 130 129 129 126 121 117 119 112 115 108 109 105 100 96 95 93 90 87 90 84 86 90 93
141 138 137 135 132 130 128 125 118 113 114 108 113 111 112 108 105 102 101 101 99 97 96 96 94 92 97
144 138 133 126 124 120 118 115 111 109 109 106 103 106 110 110 109 108 106 106 106 106 106 105 103 103 102
132 129 125 120 119 115 110 106 104 102 106 105 102 105 106 109 111 110 109 110 111 112 113 112 111 110 110
121 119 115 110 106 103 99 96 94 95 100 100 100 101 102 107 111 112 111 112 113 115 117 118 117 117 117
106 105 103 99 96 94 91 87 84 86 91 89 90 95 99 103 106 108 110 112 114 116 119 122 123 125 123
92 90 88 87 85 83 81 79 75 77 78 80 82 87 91 93 98 103 110 109 113 116 118 121 123 127 130
82 80 78 76 76 74 73 71 69 72 71 73 77 78 80 85 89 95 100 107 110 113 116 118 121 124 128
73 71 69 67 66 64 64 64 63 64 65 66 68 70 73 79 78 83 92 96 102 107 110 114 116 119 123
65 63 62 62 61 59 58 58 58 58 59 59 61 63 67 72 72 78 83 88 94 98 100 103 108 115 120
59 58 56 56 56 55 52 52 53 52 54 54 57 59 61 64 67 70 74 80 85 87 92 96 101 105 112
Wind_Direction
288 289 290 290 290 289 289 289 289 289 289 288 284 277 274 275 267 255 232 225 220 216 215 215 218 222 220
288 289 288 288 287 287 286 285 285 287 287 286 285 282 273 270 263 259 249 237 230 226 222 220 219 221 222
287 287 287 286 287 286 285 285 284 283 283 281 280 278 276 269 262 262 252 247 240 236 232 227 225 227 227
288 286 287 285 285 285 287 287 285 282 280 279 277 276 274 270 267 256 254 248 245 237 237 235 230 232 231
289 288 287 287 285 284 283 282 283 281 278 276 274 274 273 268 265 264 257 249 247 240 237 236 236 235 233
291 290 289 288 288 287 285 283 281 280 278 277 273 271 268 265 262 260 258 254 245 250 242 237 235 238 237
289 288 288 286 286 286 285 284 281 278 277 274 273 270 266 264 260 257 255 252 247 244 241 241 240 236 236
292 291 290 287 285 283 281 280 277 274 271 268 267 265 262 260 257 254 251 248 246 243 240 240 240 239 236
291 290 288 285 283 280 278 276 274 272 269 265 261 259 258 256 253 251 248 247 244 242 240 239 238 237 234
290 288 286 284 282 279 276 274 271 269 266 262 257 255 253 253 252 249 246 244 242 240 240 239 237 235 236
288 287 285 283 281 279 276 274 269 268 263 261 259 255 252 249 250 248 246 243 241 240 238 237 236 236 235
287 285 283 282 281 279 277 275 270 267 265 261 258 256 253 249 248 248 245 244 242 240 238 237 235 234 235
286 284 283 282 280 278 277 274 271 267 264 262 258 254 254 250 247 245 246 244 243 241 238 237 236 235 235
286 284 283 281 279 278 277 274 271 267 263 260 257 255 252 251 248 246 245 245 242 242 241 239 238 238 236
288 286 284 282 280 278 275 274 271 268 264 260 258 255 252 251 249 246 245 243 243 242 241 241 239 239 238
288 286 285 283 281 279 276 274 271 268 265 261 257 254 250 249 247 245 245 244 243 243 242 242 241 240 239
289 287 285 283 282 280 278 274 272 270 266 263 259 254 253 251 248 246 245 245 245 243 243 243 242 241 241
Height
10517 10511 10510 10509 10507 10507 10505 10506 10509 10511 10513 10513 10515 10517 10518 10520 10522 10522 10523 10526 10529 10528 10530 10534 10539 10543 10548
10499 10490 10487 10483 10485 10485 10483 10483 10483 10485 10489 10490 10493 10495 10498 10502 10505 10508 10510 10512 10513 10517 10518 10520 10522 10527 10533
10477 10468 10462 10455 10456 10457 10457 10457 10459 10460 10461 10464 10466 10470 10474 10477 10480 10483 10488 10493 10497 10497 10501 10505 10508 10510 10512
10441 10440 10436 10427 10425 10423 10425 10427 10430 10430 10431 10432 10434 10439 10444 10448 10452 10456 10460 10467 10471 10477 10478 10482 10488 10491 10495
10402 10401 10400 10395 10390 10388 10391 10391 10394 10391 10394 10397 10401 10407 10409 10414 10417 10424 10430 10436 10441 10447 10454 10458 10461 10466 10473
10362 10357 10356 10351 10347 10342 10344 10345 10353 10348 10348 10357 10358 10366 10367 10374 10380 10388 10395 10401 10408 10414 10423 10428 10434 10440 10444
10323 10316 10314 10306 10301 10295 10290 10293 10302 10306 10295 10310 10306 10319 10318 10329 10339 10348 10356 10364 10372 10379 10387 10395 10402 10408 10415
10262 10262 10255 10251 10244 10237 10236 10234 10244 10252 10244 10263 10259 10266 10268 10280 10290 10302 10312 10322 10331 10341 10349 10357 10365 10374 10382
10209 10202 10196 10191 10185 10182 10182 10181 10192 10195 10195 10201 10216 10218 10218 10227 10239 10252 10264 10276 10288 10298 10307 10318 10327 10337 10347
10159 10149 10140 10138 10133 10128 10131 10134 10137 10149 10145 10145 10161 10167 10175 10181 10187 10201 10217 10228 10240 10252 10264 10276 10288 10298 10308
10116 10105 10093 10089 10086 10083 10084 10088 10093 10098 10098 10102 10114 10122 10132 10138 10140 10151 10168 10180 10195 10208 10221 10232 10245 10256 10268
10074 10065 10056 10051 10047 10046 10045 10050 10056 10058 10055 10064 10074 10075 10084 10094 10103 10111 10121 10135 10148 10162 10174 10186 10202 10214 10225
10039 10032 10024 10020 10015 10013 10014 10016 10021 10021 10024 10027 10035 10038 10043 10054 10064 10075 10077 10095 10103 10115 10129 10143 10156 10172 10187
10009 10001 9997 9993 9988 9987 9985 9986 9990 9988 9994 9998 9999 10006 10011 10018 10028 10036 10045 10051 10065 10076 10089 10105 10119 10132 10145
9982 9976 9970 9967 9964 9964 9961 9960 9962 9962 9964 9969 9972 9977 9984 9986 9998 10006 10010 10021 10027 10037 10051 10065 10081 10095 10106
9959 9954 9949 9944 9941 9940 9940 9939 9938 9939 9940 9944 9946 9951 9954 9958 9969 9974 9980 9987 9996 10007 10021 10034 10046 10057 10068
9939 9934 9930 9925 9921 9919 9920 9919 9917 9919 9918 9921 9922 9927 9932 9935 9942 9950 9957 9962 9969 9981 9989 10002 10011 10021 10029